Dewpoint
10 10 11 12 12 13 11 10 9 10 9 8 9 11 14 17 18 21 17 16 18 20 24 27 29 36 43 47 51 47 45 43 43 42 42 40 39 38 37 36 35 34 33 32
14 12 12 10 10 10 10 10 10 11 10 12 14 14 14 16 21 18 16 17 20 23 26 28 31 37 44 49 48 45 43 42 42 41 41 40 39 38 37 36 34 33 32 31
11 11 11 10 9 8 8 8 9 9 12 13 14 12 13 22 19 18 18 18 20 25 29 30 34 39 45 45 44 43 42 41 40 39 38 37 35 34 33 34 33 33 31 30
14 13 9 7 9 10 10 10 11 11 12 14 14 13 12 18 19 18 19 21 23 28 30 33 37 40 43 42 41 39 38 37 36 35 34 33 32 31 31 32 31 31 29 26
15 11 11 9 7 5 7 9 11 14 14 12 14 14 18 20 20 19 20 23 24 29 32 34 39 40 39 37 36 34 33 33 33 32 32 32 32 32 31 30 29 27 25 23
16 15 10 4 10 11 12 10 11 11 11 17 19 17 17 22 20 20 19 22 26 32 33 37 39 39 36 34 33 32 32 32 32 32 32 31 31 30 31 30 26 20 18 19
16 16 16 13 13 12 10 8 12 14 16 17 20 21 23 23 20 19 22 22 31 34 36 37 39 36 34 33 31 33 33 32 31 31 30 30 29 29 27 22 19 18 18 18
13 14 13 13 13 14 17 22 21 20 18 19 20 19 20 20 20 21 23 25 35 35 36 37 36 34 32 30 31 31 31 30 30 30 29 27 24 24 24 23 20 17 18 18
15 14 17 19 19 20 20 20 23 25 25 24 22 21 20 21 22 23 25 33 35 35 35 34 34 32 29 30 30 30 29 27 27 26 24 22 22 21 20 19 18 17 17 17
19 19 20 22 26 26 30 32 30 28 25 26 28 23 22 23 23 24 32 36 36 33 31 29 30 30 30 30 30 29 27 26 24 22 21 20 19 19 19 19 18 17 17 17
21 22 27 25 24 25 26 29 30 29 34 31 27 29 25 25 25 32 35 35 34 31 29 28 29 29 30 30 29 27 24 23 22 20 18 18 20 19 17 17 17 16 17 17
25 29 28 26 26 25 27 27 29 28 30 33 34 30 28 29 33 34 33 32 30 28 27 28 28 28 28 30 26 23 21 20 20 19 17 17 16 15 15 14 13 13 13 14
28 29 27 25 25 26 27 29 28 28 31 32 34 35 34 33 34 33 31 28 27 26 27 27 26 26 27 24 23 20 19 19 19 18 16 15 15 15 17 17 13 10 8 8
25 25 21 23 24 31 25 24 26 27 28 29 32 36 37 32 30 28 26 26 26 26 26 25 24 23 23 22 21 20 19 19 17 16 15 15 15 14 14 12 11 8 5 3
23 22 22 24 29 31 31 29 28 29 29 33 35 32 29 26 25 24 25 26 25 24 24 23 21 21 21 19 16 15 14 13 13 13 12 11 9 8 6 4 3 2 -0 -0
23 21 21 25 27 27 29 30 29 29 29 28 27 26 25 25 25 25 26 26 22 21 21 21 20 19 18 15 13 12 12 12 10 9 7 5 4 3 2 2 1 0 0 -1
20 19 19 22 25 25 25 26 26 25 25 24 24 24 23 23 22 22 22 23 22 20 20 19 19 18 14 13 11 11 10 8 6 3 2 2 2 1 1 1 0 -0 0 2
22 23 24 24 24 23 23 23 23 23 23 23 24 23 22 20 19 19 20 19 19 19 18 18 17 15 12 11 9 7 3 -0 -1 0 1 1 0 1 2 1 0 1 1 1
21 22 23 23 23 22 22 22 22 23 23 22 21 20 20 20 20 20 19 18 17 15 15 13 12 10 9 8 4 2 1 0 0 1 1 2 4 0 0 1 1 3 3 3
21 21 21 21 22 22 22 22 22 22 22 21 20 19 18 19 19 18 17 15 12 11 10 9 7 6 4 3 1 0 0 -1 -2 2 3 3 4 5 2 1 1 4 5 4
21 20 20 20 20 21 21 21 20 20 21 20 19 18 18 17 16 15 12 11 11 11 9 8 6 2 -0 -0 1 4 4 4 4 5 6 6 5 4 4 4 4 4 4 4
21 20 20 20 20 21 21 21 20 20 19 18 17 17 16 15 15 15 14 12 12 10 8 7 4 4 1 1 2 3 2 3 4 4 4 4 4 4 3 3 3 3 3 3
22 20 20 20 20 20 20 20 20 19 18 17 16 14 11 10 10 10 10 10 9 8 5 5 6 7 7 8 7 6 5 5 4 4 5 5 4 4 3 2 3 3 2 2
20 20 19 19 19 18 17 17 16 17 17 16 16 14 12 13 11 11 11 11 11 10 7 7 7 6 7 8 7 6 6 6 6 5 4 3 5 4 3 2 2 2 2 1
20 19 19 18 17 16 15 14 13 12 11 11 11 12 12 13 13 12 12 10 7 5 5 6 6 7 8 7 6 6 5 5 5 5 5 4 4 3 3 2 2 1 1 1
16 17 17 16 15 15 14 14 13 13 13 15 15 16 15 14 13 12 12 10 10 9 9 9 9 8 7 6 5 5 5 4 4 4 4 4 3 3 2 2 2 2 1 1
15 15 13 14 14 14 14 13 14 13 14 15 15 16 15 15 13 12 13 12 11 10 9 8 8 7 6 5 4 4 4 2 2 4 4 4 4 3 2 2 2 2 1 0
Wind_Speed
23 26 27 32 32 27 30 37 38 44 46 43 43 38 34 28 23 13 14 15 18 21 24 26 29 29 29 21 2 6 8 13 15 15 19 17 16 20 22 24 21 22 23 22
25 24 26 32 30 30 33 35 36 38 43 34 30 24 24 21 11 11 14 16 19 21 24 26 28 28 28 8 6 9 12 14 15 18 18 19 15 19 22 21 24 22 21 23
14 12 20 21 14 14 23 24 25 28 27 26 29 25 23 14 13 11 16 18 21 21 22 24 25 25 18 14 10 12 14 14 16 19 18 20 19 21 21 25 23 21 21 21
18 19 13 3 14 23 26 27 27 26 24 22 25 30 24 10 9 13 18 19 20 18 20 22 21 19 11 12 15 16 18 19 18 19 19 18 21 22 20 19 19 18 17 19
8 14 27 21 13 16 21 24 20 24 23 25 25 16 12 4 12 17 20 18 17 16 18 18 17 11 8 13 16 19 18 18 17 18 20 19 21 20 18 19 19 16 17 17
14 18 17 11 17 17 17 32 25 14 13 11 12 14 11 13 24 24 22 18 17 16 15 16 13 6 8 11 15 19 18 19 18 17 18 20 19 18 16 17 16 14 16 17
22 23 19 21 19 16 18 23 17 17 17 16 18 19 21 23 25 22 19 18 11 12 13 13 9 6 11 13 16 15 16 17 19 18 20 19 18 16 16 16 14 15 16 17
16 21 21 5 12 21 26 31 36 31 25 27 27 28 26 27 23 20 17 13 9 9 10 10 7 10 14 15 14 17 18 20 20 19 18 18 20 16 15 15 16 16 15 15
13 18 33 38 38 39 37 35 35 36 37 34 32 29 21 19 17 13 10 8 7 9 8 11 12 14 17 16 17 18 21 21 21 21 19 18 18 15 16 17 16 15 14 15
26 18 35 38 39 38 36 37 33 33 34 31 30 27 20 16 14 10 6 7 7 10 12 16 16 18 18 17 18 20 20 20 19 19 17 18 18 18 18 17 16 14 14 16
28 35 45 34 37 37 38 36 34 31 29 30 28 25 23 16 14 2 5 8 11 14 16 17 17 18 17 16 17 19 19 18 17 18 19 20 20 18 19 20 18 14 16 15
29 35 27 41 43 47 43 39 33 29 27 22 25 21 18 6 2 5 9 14 16 18 19 18 18 18 17 14 17 17 16 15 14 13 13 12 15 17 21 20 20 21 20 17
18 28 31 39 38 39 41 33 23 18 7 7 15 14 11 2 10 16 17 18 18 19 19 19 20 20 18 18 18 17 17 15 13 13 12 12 12 12 11 9 13 16 18 19
19 25 22 26 37 36 29 19 8 9 11 11 11 5 12 17 18 19 19 20 21 21 21 21 22 21 17 18 19 19 18 16 14 14 13 13 13 12 10 10 11 13 14 16
24 24 22 27 26 29 22 16 11 4 2 5 17 21 23 23 23 22 22 22 23 23 22 22 21 18 16 16 17 17 16 15 14 15 14 12 12 13 12 13 13 12 13 16
24 21 21 23 23 26 27 24 22 22 22 24 27 27 26 26 25 24 21 19 23 23 21 19 19 16 15 16 17 17 18 16 15 13 12 13 14 14 14 14 13 13 16 20
21 27 28 23 20 21 23 22 22 22 23 26 26 26 27 28 27 26 24 23 24 22 20 19 18 15 15 16 16 15 15 15 14 14 14 14 15 14 12 14 16 16 16 18
10 11 11 10 13 16 20 21 21 22 23 22 22 24 25 26 25 23 23 24 23 22 20 17 16 16 16 16 15 15 14 14 15 16 16 13 13 15 16 15 15 17 17 16
11 11 12 14 14 15 18 20 20 19 20 22 25 25 24 24 23 23 22 21 20 21 16 15 17 18 17 16 15 14 14 15 16 13 12 14 15 15 16 17 17 15 14 16
12 13 14 15 15 15 19 19 22 21 20 23 24 25 24 21 21 22 20 23 19 17 15 16 16 17 17 16 15 15 16 15 14 14 14 15 16 17 15 14 14 15 16 17
11 12 14 14 15 15 16 15 19 23 19 20 23 22 22 21 18 17 20 20 16 15 15 14 14 14 14 14 15 15 14 14 13 14 16 16 14 13 13 13 13 16 16 17
9 11 12 14 15 16 15 16 18 19 20 21 20 20 21 20 19 21 18 17 12 12 13 14 14 15 15 15 15 14 13 14 16 16 14 13 12 11 12 14 15 14 15 15
9 10 11 12 14 15 15 16 16 17 17 16 16 16 16 15 13 15 17 12 13 14 15 15 15 16 16 14 13 14 16 17 15 12 11 10 10 11 12 13 13 14 14 15
10 10 11 12 12 14 16 13 15 16 16 15 13 12 13 15 16 14 16 15 14 15 15 13 15 14 14 14 14 14 14 12 10 10 9 9 9 10 11 12 13 13 14 15
10 10 10 10 11 12 14 14 15 14 15 15 14 12 11 10 12 13 14 14 15 15 14 14 14 14 14 14 13 12 11 10 9 8 8 9 10 11 12 12 12 13 14 15
10 8 8 8 10 10 11 10 11 10 11 12 12 12 14 14 15 14 13 14 14 13 11 10 11 13 12 11 10 10 8 8 8 8 8 9 10 11 11 12 13 14 14 16
10 10 11 10 8 9 9 9 11 11 10 12 14 12 12 12 13 13 13 12 11 11 11 11 10 10 9 9 9 8 7 7 8 7 8 9 9 10 10 11 12 13 14 15
Wind_Direction
281 290 290 286 290 294 281 272 268 276 278 284 290 294 299 301 298 302 312 328 340 342 343 344 343 342 342 322 78 89 74 77 76 74 85 70 73 79 78 78 64 62 64 57
290 285 279 286 290 286 276 277 276 277 280 285 296 301 303 291 286 299 326 336 343 345 347 346 345 346 341 1 53 90 94 90 88 91 92 86 64 66 66 77 72 61 62 61
286 294 296 290 282 291 290 284 288 291 298 305 302 303 305 310 303 329 332 336 343 343 345 347 347 350 360 30 51 73 81 79 79 81 77 79 75 71 65 65 72 71 63 59
284 297 274 239 299 291 282 282 280 280 287 303 299 303 299 286 336 335 331 333 336 341 341 347 353 356 21 52 65 70 73 73 72 75 77 74 79 72 72 73 71 78 71 65
263 277 285 290 278 288 291 286 295 291 296 295 304 290 260 116 347 333 326 326 327 335 339 348 352 2 56 71 80 79 76 74 75 78 79 75 73 76 78 80 71 67 62 58
258 286 284 300 316 301 289 279 281 289 297 298 311 288 284 341 331 323 319 323 328 337 346 358 354 32 71 79 87 92 93 91 87 82 81 77 74 71 70 72 79 74 66 60
257 264 272 281 288 297 266 281 315 305 289 281 276 282 295 305 314 316 314 317 344 345 4 0 17 73 82 84 83 87 90 86 81 77 76 75 74 67 70 72 72 70 62 52
267 274 279 276 294 280 290 308 307 303 295 287 286 282 287 296 303 314 313 319 352 5 14 17 45 88 89 79 76 79 79 75 72 70 71 70 74 69 70 71 67 57 55 50
278 272 296 302 291 286 282 274 268 270 280 289 286 284 288 294 297 304 315 339 6 25 52 54 68 89 86 82 81 79 76 72 69 66 67 68 70 68 64 58 56 53 48 45
290 279 292 303 308 303 302 294 291 272 260 259 273 280 281 282 293 302 352 15 50 81 82 81 78 79 84 86 84 81 79 77 76 74 75 72 66 58 54 50 47 46 44 40
293 298 315 306 311 309 301 294 287 289 295 272 249 267 273 278 287 15 87 80 94 102 98 88 84 82 82 85 88 84 82 80 79 75 70 68 60 61 65 56 45 44 39 37
306 313 311 302 306 308 305 298 288 280 275 283 270 249 264 265 266 111 103 106 105 100 94 88 85 79 75 75 84 88 86 78 74 77 75 80 84 77 66 65 57 53 48 36
304 311 307 297 304 319 316 304 272 283 331 319 283 241 271 147 96 106 106 105 102 99 93 88 84 78 75 77 83 86 86 84 78 72 73 69 65 64 71 98 82 59 42 35
319 330 315 321 321 322 343 351 338 277 269 284 271 176 121 105 104 101 100 102 98 93 88 87 83 77 79 84 85 83 81 76 76 72 68 64 61 61 56 48 38 31 39 23
336 332 312 313 333 347 349 357 2 344 254 242 116 107 104 100 96 95 96 95 92 88 86 85 85 82 80 83 83 81 77 74 73 69 62 61 62 58 50 44 38 29 17 15
324 324 337 347 352 7 19 35 46 59 72 80 86 90 95 97 97 94 92 94 93 88 87 87 86 85 86 88 87 82 75 70 69 70 66 60 55 52 45 38 33 27 25 16
344 347 347 349 2 24 33 45 59 69 78 83 90 96 96 95 90 87 85 85 84 87 86 85 85 81 83 81 81 82 79 72 67 66 61 55 51 47 46 39 32 26 22 19
351 339 336 352 27 43 52 54 64 71 78 85 88 90 90 91 94 91 88 88 86 81 77 78 82 80 76 76 78 77 76 73 68 63 58 51 52 46 41 36 30 25 14 8
22 12 23 38 50 69 72 73 71 77 81 86 86 85 87 90 93 92 90 87 85 83 80 85 83 80 77 73 78 78 75 71 65 64 63 56 51 47 39 33 27 18 8 7
45 38 42 50 50 66 81 83 88 81 83 88 89 87 85 84 87 87 85 81 82 91 91 85 85 82 81 76 75 75 73 74 72 66 54 54 48 42 36 32 21 15 12 9
64 62 57 57 61 62 72 84 92 92 87 89 94 94 96 95 96 102 94 89 79 81 84 83 83 82 79 79 76 75 75 74 70 64 54 48 44 37 31 26 22 20 11 7
83 80 81 80 75 72 74 83 87 94 97 98 96 95 96 95 91 80 73 93 90 84 84 78 75 69 78 78 76 77 77 72 64 57 53 47 41 33 29 26 20 13 10 3
107 103 98 94 94 92 86 81 83 89 92 92 97 103 99 100 101 101 94 82 87 84 86 82 83 80 78 81 81 76 69 64 60 56 51 46 39 34 30 24 15 11 6 1
121 114 111 113 115 109 99 98 98 95 93 91 90 96 103 102 87 86 91 89 91 92 89 88 84 86 85 81 75 70 67 65 61 53 53 43 40 37 32 22 15 7 4 2
130 132 128 126 120 113 115 116 111 109 108 104 97 90 89 93 103 107 102 100 100 97 92 82 83 82 79 77 75 74 71 63 53 51 43 41 39 36 28 19 13 5 2 2
147 143 137 134 133 136 137 141 131 131 127 115 102 103 102 104 109 110 106 106 104 104 99 92 84 82 83 84 83 76 72 71 68 54 46 37 38 34 23 15 11 7 3 0
141 139 138 136 140 145 148 144 141 139 135 129 121 121 119 118 116 115 114 112 110 110 105 94 87 87 95 95 88 84 80 70 49 47 50 41 33 29 18 13 10 5 2 360